Regional Weather Roundup
Issued by NWS

Current Version | Previous Version | Text Only | Print | Product List | Glossary On
Versions: 1 2 3 4 5 6 7 8 9 10 11 12 13 14 15 16 17 18 19 20 21 22 23 24 25 26 27 28 29 30 31 32 33 34 35 36 37 38 39 40 41 42 43 44 45 46 47 48 49 50
000
ASUS45 KABQ 200601
RWRNM
WEATHER ROUNDUP FOR NEW MEXICO
NATIONAL WEATHER SERVICE ALBUQUERQUE NM
1100 PM MST FRI DEC 19 2014

NOTE: "FAIR" MEANS FEW OR NO CLOUDS BELOW 12,000 FEET AGL WITH NO
       SIGNIFICANT WEATHER OR OBSTRUCTIONS TO VISION.

      THIS PRODUCT IS RELEASED AS TWO VERSIONS.  ONE VERSION NEAR
      THE TOP OF THE HOUR CONTAINING PRELIMINARY DATA FROM ALBUQUERQUE
      AND OTHER STATIONS.  A FINAL VERSION WITH ADDITIONAL DATA IS
      ISSUED ABOUT 10 MINUTES AFTER THE HOUR.

NMZ501-503-504-510>518-200700-
NORTHWEST PLATEAU/NORTHCENTRAL MOUNTAINS

CITY           SKY/WX    TMP DP  RH WIND       PRES   REMARKS
FARMINGTON     CLEAR     28  24  85 W3        30.19S
6HR MIN TEMP:  26; 6HR MAX TEMP:  36;

SANTA FE       PTCLDY    26  18  71 NW6       30.16R WCI  19
6HR MIN TEMP:  26; 6HR MAX TEMP:  34;

TAOS           PTCLDY    16  12  86 N7        30.18R WCI   6

$$
NMZ402-403-502-505>509-200700-
WESTCENTRAL MOUNTAINS/SOUTHWEST MOUNTAINS

CITY           SKY/WX    TMP DP  RH WIND       PRES   REMARKS
GALLUP         CLEAR     25  22  88 CALM      30.21F
6HR MIN TEMP:  25; 6HR MAX TEMP:  33;

GRANTS         PTCLDY    22  20  89 NW7       30.23S WCI  14
SILVER CITY    CLEAR     30  28  93 NW6       30.21S WCI  24

$$
NMZ407-409-411-412-200700-
SOUTHERN DESERTS

CITY           SKY/WX    TMP DP  RH WIND       PRES   REMARKS
LORDSBURG      FAIR      32  32 100 CALM      30.20R
DEMING         CLEAR     31  29  92 CALM      30.19R
6HR MIN TEMP:  31; 6HR MAX TEMP:  50;

HOLLOMAN AFB   CLEAR     30  27  88 NE5       30.16S WCI  25
ALAMOGORDO     CLEAR     32  27  80 CALM      30.17S
T OR C         CLEAR     32  24  72 CALM      30.18R
6HR MIN TEMP:  31; 6HR MAX TEMP:  47;


$$
NMZ519>523-200700-
CENTRAL VALLEYS/CENTRAL HIGHLANDS

CITY           SKY/WX    TMP DP  RH WIND       PRES   REMARKS
ALBUQUERQUE    PTCLDY    34  24  67 N7        30.21R WCI  28
6HR MIN TEMP:  34; 6HR MAX TEMP:  41;

DOUBLE EAGLE   CLEAR     27  22  83 W6        30.19S WCI  20
MORIARTY ARPT  FAIR      25  18  74 CALM      30.15S
6HR MIN TEMP:  24; 6HR MAX TEMP:  35;

CLINES CORNERS PTCLDY    25  19  78 NW23      30.08F WCI  10
6HR MIN TEMP:  25; 6HR MAX TEMP:  32;

BELEN          FAIR      27  23  86 N3        30.20S
6HR MIN TEMP:  26; 6HR MAX TEMP:  40;

SOCORRO        FAIR      28  24  84 CALM      30.20S
6HR MIN TEMP:  28; 6HR MAX TEMP:  44;


$$
NMZ524>526-539-540-200700-
SOUTHCENTRAL MOUNTAINS

CITY           SKY/WX    TMP DP  RH WIND       PRES   REMARKS
RUIDOSO        PTCLDY    32  10  40 W6        30.17F WCI  26

$$
NMZ527>531-200700-
NORTHEAST HIGHLANDS/NORTHEAST PLAINS

CITY           SKY/WX    TMP DP  RH WIND       PRES   REMARKS
LAS VEGAS      PTCLDY    26  12  55 NE6       30.07F WCI  19
6HR MIN TEMP:  21; 6HR MAX TEMP:  36;

RATON          PTCLDY    22  16  78 NE8       30.07F WCI  12
6HR MIN TEMP:  20; 6HR MAX TEMP:  38;

CLAYTON        CLEAR     31  25  78 W7        30.07F WCI  24
6HR MIN TEMP:  30; 6HR MAX TEMP:  38;


$$
NMZ532>537-200700-
EASTCENTRAL PLAINS

CITY           SKY/WX    TMP DP  RH WIND       PRES   REMARKS
TUCUMCARI      CLEAR     31  28  89 S7        30.09S WCI  24
6HR MIN TEMP:  27; 6HR MAX TEMP:  38;

CANNON AFB     CLOUDY    29  28  99 S5        30.13S FOG     WCI  23
6HR MIN TEMP:  28; 6HR MAX TEMP:  43; 6HR PCP: TRACE;

CLOVIS AIRPORT CLOUDY    30  28  93 S7        30.13S VSB 1/4 WCI  23

$$
NMZ028-029-538-200700-
SOUTHEAST PLAINS

CITY           SKY/WX    TMP DP  RH WIND       PRES   REMARKS
ROSWELL        CLEAR     34  21  59 CALM      30.14S
6HR MIN TEMP:  33; 6HR MAX TEMP:  55;

ARTESIA        CLEAR     37  28  70 VRB5      30.16R WCI  34
CARLSBAD       CLEAR     36  25  64 W6        30.13S WCI  31
6HR MIN TEMP:  36; 6HR MAX TEMP:  53;

HOBBS          PTCLDY    32  32 100 CALM      30.17R FOG


$$


USA.gov is the U.S. government's official web portal to all federal, state and local government web resources and services.